Location: Chiroubles
(46.1812°N, 4.6660°E)
Time: 17:38:11
(UTC+00:00)

ERBS - Pass Details

Date: 15 August 2020
Orbit: 413 x 420 km, 57.0° (Epoch: 23 September)

Event Time Altitude Azimuth Distance (km) Brightness Sun altitude
Rises 21:24:19 0° 313° (NW) 2,358 7.5 -22.2°
Reaches altitude 10° 21:26:46 10° 330° (NNW) 1,492 6.2 -22.5°
Maximum altitude 21:29:21 21° 21° (NNE) 1,009 4.5 -22.7°
Enters shadow 21:29:50 20° 34° (NE) 1,029 4.4 -22.8°
